[Date Prev][Date Next][Thread Prev][Thread Next] - [Date Index][Thread Index][Author Index]

2 Line ISS Keps 11-3



ISS
1 25544U 98067A   05307.01688006  .00021726  00000-0  15005-3 0  6724
2 25544 051.6434 269.4240 0002018 097.1369 344.0423 15.74491946397535
----
Via the sarex mailing list at AMSAT.ORG courtesy of AMSAT-NA.
To unsubscribe, send "unsubscribe sarex" to Majordomo@amsat.org



AMSAT Top AMSAT Home